Tracking 23448 objects as of 23-Jun-2021
HD Live streaming from Space Station
objects crossing your sky now

COSMOS 1299 FUEL CORE

Track COSMOS 1299 FUEL CORE now!
10-day predictions


NORAD ID: 12808
Int'l Code: 1981-081C
Perigee: 930.8 km
Apogee: 950.5 km
Inclination: 65.1 °
Period: 103.7 minutes
Semi major axis: 7311 km
RCS: 0.1748 m2 (medium)
Launch date: August 24, 1981
Source: Commonwealth of Independent States (former USSR) (CIS)
Launch site: TYURATAM MISSILE AND SPACE COMPLEX (TTMTR)

Note: This is SATELLITE DEBRIS
aabbcc
Your satellite tracking list
Your tracking list is empty




NASA's NSSDC Master Catalog

Two Line Element Set (TLE):
1 12808U 81081C   21173.65328854 -.00000079  00000-0  79681-5 0  9995
2 12808  65.1159 255.7970 0013490  14.9660  60.0606 13.88605922 19581
Source of the keplerian elements: AFSPC